Wind_Speed
9 6 5 6 7 2 2 4 6 8 9 8 10 11 10 9 9 11 10 9 10 9 8 8 7 8 11 12 11 11 11 13 13 13 13 15 15 13 13 14 15 16 16
12 7 3 6 7 5 0 4 7 9 10 9 9 10 10 9 10 12 12 10 8 8 9 9 8 10 12 11 11 11 12 13 12 12 13 14 14 12 12 11 13 13 13
12 9 7 7 8 6 2 4 7 8 10 10 9 9 9 10 12 12 11 9 8 8 9 11 11 12 12 11 11 11 12 12 11 12 12 13 13 11 10 9 10 11 11
11 10 7 5 7 6 3 3 6 8 9 9 9 8 9 11 13 14 13 11 11 9 11 12 13 13 13 13 12 12 13 11 11 13 12 11 10 11 10 8 8 9 10
7 8 8 5 3 5 3 2 5 7 9 9 9 9 8 8 12 12 17 15 13 12 12 13 14 14 14 14 12 11 11 11 12 12 12 12 11 11 11 10 9 8 8
8 2 3 7 4 1 3 4 5 7 9 9 9 8 9 10 11 10 15 19 13 13 13 13 14 14 15 14 12 12 10 10 10 11 11 11 11 11 10 10 10 9 9
6 5 2 2 4 4 2 5 5 7 8 10 10 10 10 11 12 12 9 12 10 12 12 13 13 14 12 13 12 12 11 10 10 9 8 9 10 11 10 10 9 9 8
23 7 10 6 5 4 1 3 6 6 8 8 8 11 12 13 12 13 12 9 9 12 12 12 13 14 12 12 12 13 11 11 10 9 8 8 8 9 8 8 7 7 7
23 17 12 12 10 9 8 4 5 8 9 9 9 10 11 13 12 12 11 11 10 9 10 12 14 15 14 13 12 13 11 11 10 9 8 7 7 7 7 6 6 4 5
24 26 13 10 11 11 8 8 8 8 10 8 9 10 12 12 11 11 10 10 10 9 8 12 13 14 14 14 14 14 13 12 10 8 6 5 4 4 5 5 4 2 2
27 26 25 10 12 15 12 9 10 11 11 12 11 11 10 11 11 11 9 9 9 7 9 15 14 15 15 14 14 14 13 11 10 8 6 5 4 2 1 1 1 1 1
33 30 28 26 11 16 15 11 12 14 13 13 14 12 11 11 11 11 11 10 10 8 7 18 17 14 13 13 14 14 13 11 10 9 8 7 6 5 5 5 5 5 5
34 30 32 33 9 11 14 13 12 15 15 15 15 12 12 12 12 12 11 10 10 10 9 16 15 13 13 12 13 13 13 12 12 11 10 10 10 9 9 10 10 11 8
33 32 31 35 17 11 14 12 10 13 15 16 16 14 13 12 12 12 12 11 10 11 11 12 17 16 15 12 15 16 16 15 14 14 14 14 14 13 14 14 16 17 15
32 33 29 32 31 4 14 12 11 13 16 14 14 14 15 14 11 11 11 11 11 11 11 13 15 16 17 17 17 18 18 18 17 17 18 19 18 19 19 18 14 19 19
33 33 33 30 32 13 10 12 16 7 14 14 13 15 14 14 11 14 12 12 10 11 13 12 13 15 15 16 15 15 15 16 16 15 14 13 15 16 16 17 19 21 16
31 31 31 32 25 22 9 10 8 17 8 13 13 11 7 11 10 13 13 12 11 13 14 14 13 14 14 13 13 14 14 14 15 15 15 15 13 12 13 14 16 16 15
30 30 28 28 27 22 15 12 9 1 5 13 13 13 10 11 7 12 13 14 14 16 18 20 18 17 15 15 15 15 14 14 13 11 12 13 13 13 14 15 16 16 17
26 27 27 25 23 22 20 12 4 7 7 9 15 18 16 15 10 11 15 15 14 14 13 13 13 15 18 17 17 14 13 14 14 13 13 15 15 16 16 17 19 18 19
21 23 25 26 22 21 20 14 8 4 7 9 10 13 16 12 19 17 15 15 17 16 17 17 17 19 18 18 18 19 18 17 16 15 14 15 15 16 17 18 17 19 20
16 18 21 24 24 23 22 18 11 9 6 8 9 12 13 13 16 16 16 13 19 19 17 18 20 16 12 13 17 17 17 16 14 13 12 16 14 15 16 18 18 18 18
17 17 19 21 22 24 25 18 10 7 6 6 7 8 15 14 18 18 19 16 19 19 18 16 16 19 16 15 16 17 16 15 14 14 15 16 16 17 18 20 19 18 19
17 16 18 20 23 22 23 23 15 7 6 6 4 10 15 14 23 16 19 18 19 19 17 17 17 18 18 17 24 17 17 15 15 16 16 16 17 18 20 22 20 19 20
19 17 17 20 22 21 21 20 20 9 9 8 8 7 10 13 16 18 19 20 20 21 18 17 17 18 18 19 19 17 15 14 15 15 15 16 17 18 20 21 21 21 21
23 16 17 21 19 20 19 20 16 16 10 11 11 11 8 10 11 17 18 17 24 21 19 17 20 19 20 17 14 11 13 14 12 13 14 14 15 19 21 20 19 17 19
20 13 17 20 18 20 20 22 18 16 11 10 8 6 6 8 11 18 21 26 26 26 24 24 21 21 21 15 16 18 17 12 12 12 10 10 12 15 18 18 15 14 15
Wind_Direction
39 48 17 333 331 313 153 167 149 136 128 119 105 95 92 90 123 157 139 114 110 120 118 118 124 132 132 135 134 127 126 127 123 118 113 110 104 106 101 108 108 110 110
23 35 27 339 328 312 268 153 157 144 138 134 114 100 103 87 115 138 150 125 123 128 124 131 136 134 139 133 131 123 122 126 129 126 122 110 100 101 104 105 109 109 109
42 31 8 352 329 322 276 162 159 154 148 138 123 112 104 100 116 128 141 142 135 131 140 143 140 136 139 140 130 120 121 122 132 131 122 114 106 105 108 106 111 116 112
20 35 23 345 335 334 284 175 167 170 162 146 130 120 109 105 115 124 125 134 139 149 146 142 140 139 141 135 129 126 127 127 121 124 121 110 102 101 104 109 108 103 111
24 13 6 9 338 325 298 228 180 166 162 157 143 135 122 119 108 144 137 131 139 148 145 144 143 143 143 137 133 129 129 132 124 120 120 120 109 102 102 100 103 104 105
315 20 350 345 358 292 301 277 197 168 158 153 146 140 138 131 135 130 146 126 126 140 143 145 143 151 149 145 139 130 125 134 134 131 133 129 121 113 107 105 101 97 101
332 264 230 287 314 338 292 271 236 178 169 161 152 155 154 142 144 147 132 125 130 138 142 141 147 149 161 149 144 137 132 129 133 135 136 131 127 122 117 110 106 102 94
10 259 260 218 211 197 281 269 263 224 183 169 167 173 158 157 154 161 162 156 142 142 138 146 152 155 162 156 150 140 143 139 137 135 131 123 123 119 112 105 97 97 96
360 6 251 240 219 202 190 202 241 249 226 170 176 171 168 169 160 157 158 151 144 138 155 154 162 162 166 163 155 146 149 145 145 144 140 131 122 117 109 99 90 88 86
10 10 357 237 244 232 221 198 192 225 246 220 192 182 176 176 172 164 160 153 157 156 177 173 173 170 176 173 166 165 162 159 156 151 139 138 140 135 128 124 113 100 71
16 13 8 347 257 235 224 221 196 200 221 235 220 198 174 169 175 178 174 174 178 175 182 183 181 183 185 185 182 183 178 175 172 168 169 183 189 185 229 191 192 245 273
20 13 11 353 322 233 228 214 211 193 207 223 235 219 193 178 176 174 179 184 189 191 179 183 187 189 197 198 199 202 199 198 199 202 205 218 227 237 236 247 246 239 255
22 19 10 358 314 238 213 214 206 204 202 214 228 233 217 201 191 184 184 183 185 191 185 188 193 199 201 209 217 219 226 224 226 235 242 242 241 247 256 255 248 265 275
24 26 16 9 358 233 208 194 203 214 212 210 215 226 228 219 212 209 196 193 196 191 196 196 200 210 219 221 223 226 228 237 243 246 250 256 259 261 262 262 264 256 253
22 27 25 18 15 121 193 205 201 210 211 209 206 212 221 221 224 229 217 209 210 216 209 204 210 218 224 227 231 234 236 238 242 253 260 257 257 263 265 263 262 282 286
16 23 28 26 17 90 167 203 206 202 218 198 204 210 202 207 211 229 225 224 216 229 226 223 220 223 224 233 238 239 243 238 243 251 255 258 264 265 265 265 263 273 287
14 19 24 25 22 25 15 42 196 204 203 198 213 223 183 218 225 233 230 225 239 239 228 226 236 238 236 236 240 243 248 250 251 254 258 265 277 281 276 275 273 276 283
16 17 20 21 23 13 19 11 4 47 211 227 226 228 223 220 226 236 236 241 248 248 246 243 245 245 245 238 234 239 242 250 256 264 265 272 277 278 279 277 275 276 277
14 17 12 14 18 18 6 353 341 297 238 236 234 225 223 224 229 245 241 244 242 237 236 235 237 246 246 248 246 231 238 256 256 261 273 272 278 282 279 275 274 276 272
17 16 11 8 6 12 13 355 329 303 281 231 238 235 228 230 229 251 238 245 242 234 240 248 248 249 252 250 249 252 258 258 259 264 266 270 269 271 276 274 271 273 276
6 15 10 7 3 0 360 358 338 335 323 292 235 230 239 226 226 227 234 253 241 243 242 244 240 234 232 253 246 248 247 244 247 261 274 285 287 279 276 277 277 276 279
345 3 4 2 2 358 357 355 348 340 326 302 266 224 217 228 213 224 230 229 234 239 238 234 225 228 246 238 236 242 250 249 260 272 280 279 277 274 275 273 272 275 277
327 347 1 359 355 360 357 359 353 336 329 318 305 265 243 230 228 225 232 221 221 236 237 236 236 242 244 245 234 237 247 250 258 266 269 270 271 272 273 274 274 275 273
323 332 352 358 355 356 359 358 353 334 296 319 304 295 289 259 246 238 233 227 223 230 234 243 246 248 253 260 263 237 236 246 251 256 265 269 274 279 276 273 277 276 274
325 321 349 349 357 355 358 2 355 335 323 291 287 299 278 283 257 239 233 232 237 232 228 236 240 249 248 255 262 229 247 237 249 260 267 279 280 279 274 269 267 264 270
321 321 347 344 353 360 350 359 359 352 325 308 285 235 241 273 255 243 230 219 242 241 241 240 245 255 253 247 253 253 263 262 257 257 265 276 288 297 281 263 260 256 268
Height
5885 5885 5886 5887 5888 5889 5889 5890 5889 5888 5888 5888 5889 5889 5890 5891 5891 5893 5895 5897 5898 5900 5902 5904 5907 5908 5909 5910 5911 5911 5911 5912 5913 5914 5914 5914 5915 5916 5917 5916 5917 5917 5917
5888 5886 5885 5886 5888 5888 5889 5889 5889 5889 5889 5889 5889 5890 5890 5890 5891 5893 5894 5896 5899 5900 5902 5904 5906 5908 5910 5911 5912 5913 5913 5914 5915 5916 5916 5916 5916 5917 5917 5918 5918 5918 5919
5886 5886 5886 5887 5887 5888 5887 5888 5888 5889 5889 5889 5889 5890 5890 5891 5890 5892 5893 5896 5898 5900 5902 5904 5906 5908 5910 5912 5913 5913 5915 5916 5917 5917 5918 5918 5918 5918 5919 5920 5920 5920 5920
5888 5886 5885 5886 5887 5887 5887 5887 5888 5888 5889 5889 5890 5891 5891 5891 5891 5892 5894 5896 5898 5901 5902 5904 5906 5908 5911 5912 5914 5915 5916 5917 5918 5919 5919 5919 5920 5920 5921 5921 5922 5922 5922
5885 5885 5885 5885 5886 5887 5886 5887 5887 5888 5889 5890 5890 5891 5891 5891 5891 5892 5894 5896 5899 5901 5902 5904 5907 5908 5910 5913 5915 5916 5917 5918 5919 5920 5920 5921 5921 5922 5923 5923 5923 5924 5924
5886 5884 5882 5885 5885 5885 5886 5887 5887 5887 5887 5889 5889 5890 5891 5892 5892 5892 5894 5896 5899 5901 5902 5905 5906 5909 5910 5912 5915 5917 5918 5919 5920 5921 5922 5922 5922 5924 5925 5925 5925 5925 5925
5881 5883 5881 5881 5883 5885 5885 5887 5888 5887 5887 5888 5889 5890 5892 5893 5893 5894 5894 5894 5898 5901 5903 5904 5906 5909 5911 5913 5915 5917 5918 5921 5922 5923 5924 5924 5924 5925 5925 5926 5926 5927 5927
5883 5880 5880 5877 5879 5880 5883 5885 5886 5888 5887 5889 5890 5890 5892 5892 5894 5895 5895 5895 5898 5901 5903 5905 5907 5909 5912 5915 5916 5917 5919 5921 5922 5924 5925 5926 5927 5927 5927 5927 5928 5929 5929
5885 5881 5877 5876 5876 5877 5878 5881 5883 5886 5887 5888 5888 5889 5891 5892 5893 5895 5896 5896 5897 5900 5902 5905 5907 5909 5912 5914 5916 5917 5919 5922 5923 5925 5925 5926 5927 5928 5928 5928 5929 5929 5930
5885 5882 5877 5875 5875 5877 5878 5878 5879 5882 5886 5887 5888 5889 5889 5890 5892 5894 5895 5897 5899 5900 5902 5904 5907 5910 5912 5914 5915 5917 5919 5921 5923 5925 5926 5927 5928 5928 5928 5928 5929 5929 5930
5887 5883 5879 5876 5874 5874 5875 5877 5877 5879 5883 5886 5887 5888 5890 5890 5890 5892 5894 5895 5897 5900 5901 5903 5906 5908 5910 5913 5915 5917 5918 5920 5922 5924 5925 5926 5928 5928 5929 5929 5929 5929 5929
5886 5882 5878 5876 5872 5871 5872 5875 5876 5876 5879 5882 5886 5888 5889 5889 5890 5891 5892 5894 5897 5899 5900 5902 5905 5907 5910 5912 5915 5917 5918 5919 5921 5923 5924 5925 5926 5927 5927 5928 5928 5928 5928
5887 5882 5877 5872 5867 5869 5870 5872 5873 5876 5877 5880 5882 5886 5889 5889 5890 5890 5891 5893 5895 5897 5898 5901 5905 5907 5908 5911 5913 5916 5917 5918 5920 5921 5922 5922 5923 5924 5925 5925 5925 5925 5925
5889 5883 5879 5873 5866 5865 5869 5871 5873 5875 5877 5878 5880 5883 5887 5888 5889 5890 5890 5891 5894 5896 5897 5899 5902 5905 5907 5909 5910 5912 5914 5915 5917 5918 5919 5919 5920 5922 5922 5922 5921 5921 5922
5891 5885 5881 5874 5868 5863 5867 5871 5872 5874 5875 5877 5878 5880 5882 5885 5888 5890 5890 5890 5892 5894 5896 5897 5900 5902 5904 5907 5908 5909 5911 5912 5914 5915 5916 5916 5917 5918 5919 5919 5918 5917 5917
5895 5889 5882 5877 5871 5867 5869 5870 5872 5874 5875 5876 5877 5878 5880 5881 5884 5886 5888 5889 5889 5892 5894 5897 5898 5900 5902 5904 5906 5907 5908 5909 5910 5912 5913 5914 5914 5914 5914 5915 5915 5914 5915
5897 5891 5886 5880 5879 5876 5873 5871 5870 5873 5873 5874 5875 5876 5878 5880 5881 5883 5884 5886 5888 5890 5891 5894 5896 5898 5900 5900 5902 5903 5905 5906 5906 5908 5909 5910 5910 5911 5911 5912 5912 5912 5912
5897 5892 5887 5882 5880 5879 5877 5875 5872 5870 5871 5872 5873 5873 5875 5878 5878 5879 5882 5883 5886 5887 5889 5891 5892 5895 5897 5898 5899 5900 5901 5902 5904 5905 5906 5908 5908 5908 5908 5909 5909 5908 5908
5896 5891 5888 5884 5881 5878 5876 5876 5875 5873 5870 5869 5870 5871 5872 5874 5875 5877 5878 5880 5883 5884 5886 5888 5889 5892 5893 5895 5895 5896 5897 5899 5901 5902 5903 5903 5903 5904 5904 5904 5904 5904 5904
5896 5891 5887 5885 5882 5880 5877 5874 5874 5872 5870 5868 5867 5867 5868 5870 5872 5875 5876 5877 5879 5881 5883 5885 5886 5887 5889 5890 5891 5893 5895 5897 5898 5898 5899 5899 5899 5900 5900 5899 5899 5899 5899
5898 5891 5886 5883 5881 5878 5873 5869 5867 5867 5866 5867 5864 5864 5865 5866 5868 5871 5873 5875 5877 5878 5880 5882 5883 5884 5886 5887 5888 5890 5891 5892 5893 5894 5895 5895 5895 5896 5896 5895 5894 5894 5894
5898 5892 5886 5884 5880 5877 5873 5868 5866 5865 5865 5865 5864 5862 5862 5863 5865 5866 5869 5871 5873 5876 5876 5878 5880 5882 5883 5884 5885 5885 5887 5889 5889 5890 5890 5891 5891 5891 5891 5890 5890 5890 5890
5898 5893 5886 5883 5881 5875 5872 5869 5865 5863 5862 5862 5861 5862 5861 5861 5862 5864 5865 5868 5870 5872 5873 5874 5876 5878 5880 5880 5881 5881 5884 5884 5885 5885 5886 5886 5887 5886 5886 5885 5884 5885 5885
5896 5893 5887 5882 5879 5876 5872 5868 5864 5861 5859 5860 5860 5859 5858 5857 5858 5860 5862 5865 5867 5869 5870 5872 5874 5875 5875 5875 5876 5877 5880 5880 5881 5882 5882 5883 5882 5881 5880 5879 5879 5879 5880
5893 5890 5885 5882 5879 5876 5871 5867 5863 5859 5856 5855 5855 5856 5855 5855 5855 5858 5859 5861 5862 5864 5866 5867 5868 5870 5871 5872 5873 5873 5876 5876 5876 5878 5879 5878 5877 5875 5874 5874 5875 5876 5876
5890 5887 5883 5881 5877 5873 5870 5866 5861 5857 5854 5852 5849 5851 5852 5854 5854 5856 5855 5856 5858 5861 5862 5863 5865 5865 5866 5868 5870 5871 5871 5873 5874 5875 5874 5874 5873 5870 5868 5869 5871 5872 5871